KO4ETB Weather Reports


Display with metric or nautical units.
time (UTC)temp
F
wind
direction
speed
MPH
gust
MPH
rain 1hr
in
rain 24hr
in
rain mn
in
humidity
%
barometer
mb
20260508002131 53 281 1.0 2.0 0.00 0.00 0.00 51 992.1
20260508001103 53 284 1.0 3.0 0.00 0.00 0.00 48 991.8
20260508000052 54 285 1.0 2.0 0.00 0.00 0.00 46 991.6
20260507235101 55 260 2.0 6.0 0.00 0.00 0.00 44 991.5
20260507234031 55 279 2.0 7.0 0.00 0.00 0.00 42 991.3
20260507233022 56 272 1.0 2.0 0.00 0.00 0.00 42 991.3
20260507232113 56 277 1.0 2.0 0.00 0.00 0.00 41 991.1
20260507231103 56 271 3.0 6.0 0.00 0.00 0.00 39 991.2
20260507230052 56 278 1.0 1.0 0.00 0.00 0.00 40 991.1
20260507225101 57 284 1.0 3.0 0.00 0.00 0.00 38 990.9
20260507224031 58 280 2.0 4.0 0.00 0.00 0.00 38 991.0
20260507223041 59 277 1.0 1.0 0.00 0.00 0.00 38 990.8
20260507222517 58 315 1.0 3.0 0.00 0.00 0.00 39 990.8
20260507221607 58 285 1.0 3.0 0.00 0.00 0.00 39 990.9
20260507220558 58 273 2.0 3.0 0.00 0.00 0.00 39 990.6
20260507215547 59 292 3.0 6.0 0.00 0.00 0.00 38 990.5
20260507214538 58 284 1.0 3.0 0.00 0.00 0.00 39 990.4
20260507213527 59 282 1.0 3.0 0.00 0.00 0.00 37 990.3
20260507212519 59 251 1.0 3.0 0.00 0.00 0.00 37 990.5
20260507211608 59 287 2.0 3.0 0.00 0.00 0.00 38 990.5
20260507210559 61 274 3.0 8.0 0.00 0.00 0.00 36 990.4
20260507205549 61 284 2.0 6.0 0.00 0.00 0.00 37 990.4
20260507204538 60 284 2.0 6.0 0.00 0.00 0.00 38 990.4
20260507203528 60 279 2.0 7.0 0.00 0.00 0.00 38 990.4
20260507202519 60 296 1.0 6.0 0.00 0.00 0.00 39 990.4
20260507201609 60 283 1.0 3.0 0.00 0.00 0.00 38 990.5
20260507200600 61 281 2.0 3.0 0.00 0.00 0.00 37 990.6
20260507195550 61 277 3.0 10.0 0.00 0.00 0.00 38 990.7
20260507194540 61 265 2.0 8.0 0.00 0.00 0.00 37 990.7
20260507193529 61 277 1.0 3.0 0.00 0.00 0.00 38 990.8
20260507192520 63 281 2.0 3.0 0.00 0.00 0.00 37 990.9
20260507191611 61 280 1.0 4.0 0.00 0.00 0.00 39 990.8
20260507190601 61 291 1.0 4.0 0.00 0.00 0.00 40 991.0
20260507185551 61 268 2.0 7.0 0.00 0.00 0.00 39 991.0
20260507184541 58 275 1.0 3.0 0.00 0.00 0.00 41 991.1
20260507183531 59 286 1.0 3.0 0.00 0.00 0.00 42 991.2
20260507182520 60 271 2.0 7.0 0.00 0.00 0.00 41 991.3
20260507181611 59 271 2.0 4.0 0.00 0.00 0.00 41 991.3
20260507180057 60 269 3.0 6.0 0.00 0.00 0.00 40 991.6
20260507175046 59 339 1.0 3.0 0.00 0.00 0.00 43 991.5
20260507174036 58 282 1.0 3.0 0.00 0.00 0.00 45 991.5
20260507173026 59 282 2.0 7.0 0.00 0.00 0.00 44 991.8
20260507172017 58 280 1.0 2.0 0.00 0.00 0.00 46 991.8
20260507171128 59 291 0.0 2.0 0.00 0.00 0.00 45 991.9
20260507170057 60 280 2.0 6.0 0.00 0.00 0.00 41 992.2
20260507165047 58 275 1.0 3.0 0.00 0.00 0.00 44 992.1
20260507164037 57 272 0.0 1.0 0.00 0.00 0.00 48 992.2
20260507163027 57 275 0.0 2.0 0.00 0.00 0.00 48 992.2
20260507162017 58 292 2.0 6.0 0.00 0.00 0.00 46 992.3
20260507161108 58 271 1.0 3.0 0.00 0.00 0.00 44 992.3
20260507160058 58 275 1.0 2.0 0.00 0.00 0.00 45 992.5
20260507155048 60 279 2.0 6.0 0.00 0.00 0.00 41 992.6
20260507154118 59 272 2.0 6.0 0.00 0.00 0.00 43 992.7
20260507153028 58 275 2.0 4.0 0.00 0.00 0.00 42 992.7
20260507152018 57 273 1.0 3.0 0.00 0.00 0.00 47 992.7
20260507151109 56 281 1.0 2.0 0.00 0.00 0.00 47 992.8
20260507150059 58 277 1.0 4.0 0.00 0.00 0.00 47 993.0
20260507145049 58 270 2.0 4.0 0.00 0.00 0.00 46 993.2
20260507144039 58 282 0.0 3.0 0.00 0.00 0.00 47 993.3
20260507143029 57 277 1.0 2.0 0.00 0.00 0.00 49 993.4
20260507142019 56 271 2.0 3.0 0.00 0.00 0.00 49 993.5
20260507141132 56 292 1.0 2.0 0.00 0.00 0.00 54 993.6
20260507135110 56 279 0.0 2.0 0.00 0.00 0.00 56 993.7
20260507134040 55 296 1.0 3.0 0.00 0.00 0.00 56 993.7
20260507133030 55 285 1.0 3.0 0.00 0.00 0.00 56 993.8
20260507132021 54 275 1.0 2.0 0.00 0.00 0.00 56 993.9
20260507131111 53 283 1.0 3.0 0.00 0.00 0.00 60 993.9
20260507125051 51 271 0.0 2.0 0.00 0.00 0.00 64 993.9
20260507124102 50 288 0.0 1.0 0.00 0.00 0.00 65 993.7
20260507123031 48 281 0.0 1.0 0.00 0.00 0.00 73 993.7
20260507122021 46 308 1.0 2.0 0.00 0.00 0.00 78 993.7
20260507121112 45 276 0.0 1.0 0.00 0.00 0.00 79 993.6
20260507120122 42 0.0 0.0 0.00 0.00 0.00 90 993.5
20260507115052 40 0.0 0.0 0.00 0.00 0.00 95 993.5
20260507114042 38 0.0 0.0 0.00 0.00 0.00 95 993.5
20260507113032 38 0.0 0.0 0.00 0.00 0.00 95 993.3
20260507112022 37 0.0 0.0 0.00 0.00 0.00 95 993.3
20260507111113 37 0.0 0.0 0.00 0.00 0.00 95 993.1
20260507110103 36 0.0 0.0 0.00 0.00 0.00 94 993.1
20260507105135 36 0.0 0.0 0.00 0.00 0.00 94 993.1
20260507104043 36 0.0 0.0 0.00 0.00 0.00 94 993.0
20260507103053 36 0.0 0.0 0.00 0.00 0.00 94 992.8
20260507102043 36 0.0 0.0 0.00 0.00 0.00 94 992.8
20260507101134 36 0.0 0.0 0.00 0.00 0.00 93 992.9
20260507100104 36 0.0 0.0 0.00 0.00 0.00 93 992.9
20260507095054 36 0.0 0.0 0.00 0.00 0.00 93 992.9
20260507094044 37 0.0 0.0 0.00 0.00 0.00 93 992.9
20260507093034 37 0.0 0.0 0.00 0.00 0.00 93 992.9
20260507092023 37 0.0 0.0 0.00 0.00 0.00 92 993.1
20260507091116 37 0.0 0.0 0.00 0.00 0.00 92 993.1
20260507090125 37 0.0 0.0 0.00 0.00 0.00 92 993.0
20260507085054 38 0.0 0.0 0.00 0.00 0.00 91 993.0
20260507084045 38 0.0 0.0 0.00 0.00 0.00 91 993.1
20260507083035 38 0.0 0.0 0.00 0.00 0.00 90 993.0
20260507082044 38 0.0 0.0 0.00 0.00 0.00 90
20260507081015 39 0.0 0.0 0.00 0.00 0.00 90
20260507080106 39 0.0 0.0 0.00 0.00 0.00 90
20260507075057 39 0.0 0.0 0.00 0.00 0.00 89
20260507074046 39 0.0 0.0 0.00 0.00 0.00 89
20260507073036 40 0.0 0.0 0.00 0.00 0.00 88
20260507072026 40 0.0 0.0 0.00 0.00 0.00 86
20260507071057 41 0.0 0.0 0.00 0.00 0.00 85
20260507070106 41 0.0 0.0 0.00 0.00 0.00 84
20260507065056 42 0.0 0.0 0.00 0.00 0.00 82
20260507064046 42 0.0 0.0 0.00 0.00 0.00 83
20260507063056 43 0.0 0.0 0.00 0.00 0.00 81
20260507062106 43 0.0 0.0 0.00 0.00 0.00 84
20260507061016 43 0.0 0.0 0.00 0.00 0.00 83
20260507060127 44 0.0 0.0 0.00 0.00 0.00 83
20260507055057 44 0.0 0.0 0.00 0.00 0.00 82
20260507054047 45 0.0 0.0 0.00 0.00 0.00 81
20260507053058 45 0.0 0.0 0.00 0.00 0.00 79
20260507052028 45 0.0 0.0 0.00 0.00 0.00 79
20260507051018 45 0.0 0.0 0.00 0.00 0.00 77
20260507050108 45 0.0 0.0 0.00 0.00 0.00 79
20260507045058 45 0.0 0.0 0.00 0.00 0.00 78
20260507044109 45 0.0 0.0 0.00 0.00 0.00 78
20260507043119 46 0.0 0.0 0.00 0.00 0.00 77
20260507042028 46 0.0 0.0 0.00 0.00 0.00 76
20260507041019 46 0.0 0.0 0.00 0.00 0.00 77
20260507040109 46 0.0 0.0 0.00 0.00 0.00 76
20260507035119 46 0.0 0.0 0.00 0.00 0.00 75
20260507034048 46 0.0 0.0 0.00 0.00 0.00 77
20260507033039 46 0.0 0.0 0.00 0.00 0.00 75
20260507032029 46 0.0 0.0 0.00 0.00 0.00 74
20260507031018 47 0.0 0.0 0.00 0.00 0.00 74
20260507030150 47 0.0 0.0 0.00 0.00 0.00 73
20260507025059 47 0.0 0.0 0.00 0.00 0.00 73
20260507024050 47 0.0 0.0 0.00 0.00 0.00 74
20260507023040 47 0.0 0.0 0.00 0.00 0.00 72
20260507022029 47 0.0 0.0 0.00 0.00 0.00 73
20260507021020 47 0.0 0.0 0.00 0.00 0.00 72
20260507020111 48 0.0 0.0 0.00 0.00 0.00 71
20260507015100 48 0.0 0.0 0.00 0.00 0.00 71
20260507014051 48 0.0 0.0 0.00 0.00 0.00 72
20260507013040 48 0.0 0.0 0.00 0.00 0.00 72
20260507012030 48 0.0 0.0 0.00 0.00 0.00 71
20260507011021 49 278 0.0 1.0 0.00 0.00 0.00 67
20260507010113 50 272 0.0 1.0 0.00 0.00 0.00 62
20260507005102 50 0.0 0.0 0.00 0.00 0.00 65
20260507004053 50 261 0.0 2.0 0.00 0.00 0.00 65
20260507003041 50 0.0 0.0 0.00 0.00 0.00 68